Location: Zapote
(9.9191°N, 84.0597°W)
Time: 17:41:34
(UTC-06:00)

Transit 2A - Pass Details

Date: 09 March 2021
Orbit: 602 x 957 km, 66.7° (Epoch: 16 April)

Event Time Altitude Azimuth Distance (km) Brightness Sun altitude
Rises 02:26:09 0° 352° (N) 2,861 - -50.1°
Reaches altitude 10° 02:28:28 10° 1° (N) 1,981 - -49.5°
Maximum altitude 02:32:36 38° 70° (ENE) 991 - -48.5°
Drops below altitude 10° 02:37:02 10° 138° (SE) 2,128 - -47.4°
Sets 02:39:35 0° 145° (SE) 3,104 - -46.8°
